Find Starlink 32803

NORAD ID: 63024 Int'l Des: 2025-032 Owner: SPXS Country: US Constellation: starlink operational
LEOCIRCULAR

現在のビュー

3D地球を読み込み中...

About Starlink 32803

Starlink 32803 (NORAD 63024) is a starlink constellation satellite (v2 mini) launched Feb 15, 2025 by SPXS of US. It operates in LEO, CIRCULAR orbit with a mass of 730.00 kg.

次回通過

Passes for default location (London). Set your location on the main map for personalized predictions.

高度履歴

Loading altitude history...

軌道要素

1 63024U 25032V 26235.69408029 .00015721 00000-0 57978-3 0 9998
2 63024 43.0000 112.6787 0002158 271.1953 88.8651 15.27568975 86005
Epoch: Aug 23, 2026 • Age: 17 hours

現在のステータス

高度 482.8 km
遠地点 / 近地点 N/A
速度 7.63 km/s
衛星直下点 18.57°N, 6.28°E
打ち上げ日 Feb 15, 2025
運用期間 1.5 years
タイプ internet

技術仕様

分類 Payload
質量 730.00 kg
乾燥質量 700.00 kg
総質量 730.00 kg
長さ 0.30 m
直径 4.10 m
スパン 29.00 m
形状 Box + pan
製造者 SPXS
バスタイプ Starlink V2M
フェーズステータス In Orbit
所有者/国 SPXS/US

Most Searched